TimeEDT,TemperatureF,Dew PointF,Humidity,Sea Level PressureIn,VisibilityMPH,Wind Direction,Wind SpeedMPH,Gust SpeedMPH,PrecipitationIn,Events,Conditions,WindDirDegrees,DateUTC
12:53 AM,70.0,66.9,90,29.95,8.0,North,9.2,-,N/A,,Mostly Cloudy,360,2013-08-29 04:53:00
1:53 AM,69.1,64.9,87,29.95,10.0,North,5.8,-,N/A,,Mostly Cloudy,350,2013-08-29 05:53:00
2:02 AM,68.0,64.4,88,29.95,10.0,NNW,5.8,-,N/A,,Partly Cloudy,330,2013-08-29 06:02:00
2:53 AM,66.9,64.0,90,29.96,10.0,Calm,Calm,-,N/A,,Clear,0,2013-08-29 06:53:00
3:15 AM,66.2,64.4,94,29.96,10.0,Calm,Calm,-,N/A,,Mostly Cloudy,0,2013-08-29 07:15:00
3:53 AM,66.9,64.0,90,29.96,10.0,NNE,4.6,-,N/A,,Overcast,30,2013-08-29 07:53:00
4:48 AM,66.2,62.6,88,29.98,10.0,North,9.2,-,N/A,,Overcast,360,2013-08-29 08:48:00
4:53 AM,66.0,63.0,90,29.98,10.0,North,9.2,-,N/A,,Overcast,360,2013-08-29 08:53:00
5:19 AM,66.2,62.6,88,29.98,10.0,North,8.1,-,N/A,,Overcast,10,2013-08-29 09:19:00
5:53 AM,64.9,62.1,90,29.99,10.0,North,6.9,-,N/A,,Overcast,10,2013-08-29 09:53:00
6:53 AM,64.9,62.1,90,30.02,10.0,NNE,9.2,-,N/A,,Overcast,20,2013-08-29 10:53:00
7:14 AM,64.4,62.6,94,30.02,10.0,NNE,4.6,-,N/A,,Overcast,30,2013-08-29 11:14:00
7:27 AM,64.4,62.6,94,30.03,8.0,North,8.1,-,N/A,,Overcast,10,2013-08-29 11:27:00
7:53 AM,64.9,62.1,90,30.04,9.0,North,8.1,-,N/A,,Overcast,10,2013-08-29 11:53:00
8:26 AM,64.4,62.6,94,30.04,9.0,North,4.6,-,N/A,,Overcast,10,2013-08-29 12:26:00
8:53 AM,64.9,62.1,90,30.04,10.0,NNW,4.6,-,N/A,,Overcast,340,2013-08-29 12:53:00
9:22 AM,66.2,62.6,88,30.05,9.0,Calm,Calm,-,N/A,,Overcast,0,2013-08-29 13:22:00
9:53 AM,68.0,62.1,81,30.05,10.0,NNW,3.5,-,N/A,,Overcast,340,2013-08-29 13:53:00
10:53 AM,66.9,63.0,87,30.05,10.0,Calm,Calm,-,N/A,,Overcast,0,2013-08-29 14:53:00
11:53 AM,69.1,64.0,84,30.05,9.0,Calm,Calm,-,N/A,,Overcast,0,2013-08-29 15:53:00
12:53 PM,71.1,64.9,81,30.04,10.0,North,4.6,-,N/A,,Mostly Cloudy,360,2013-08-29 16:53:00
1:08 PM,71.6,64.4,78,30.04,10.0,North,4.6,-,N/A,,Mostly Cloudy,360,2013-08-29 17:08:00
1:35 PM,73.4,66.2,78,30.03,10.0,NE,8.1,-,N/A,,Scattered Clouds,50,2013-08-29 17:35:00
1:53 PM,73.0,64.9,76,30.03,10.0,NNE,6.9,-,N/A,,Partly Cloudy,30,2013-08-29 17:53:00
2:53 PM,75.0,64.9,71,30.02,10.0,Calm,Calm,-,N/A,,Clear,0,2013-08-29 18:53:00
3:53 PM,75.9,64.9,69,30.01,10.0,NE,6.9,-,N/A,,Clear,40,2013-08-29 19:53:00
4:53 PM,75.9,66.0,71,29.99,10.0,NE,6.9,-,N/A,,Clear,40,2013-08-29 20:53:00
5:53 PM,75.0,64.9,71,29.99,10.0,North,5.8,-,N/A,,Clear,10,2013-08-29 21:53:00
6:53 PM,73.0,64.0,73,30.01,10.0,NNW,8.1,-,N/A,,Clear,340,2013-08-29 22:53:00
7:53 PM,70.0,64.0,81,30.01,10.0,Calm,Calm,-,N/A,,Partly Cloudy,0,2013-08-29 23:53:00
8:53 PM,68.0,64.0,87,30.01,10.0,WNW,4.6,-,N/A,,Clear,300,2013-08-30 00:53:00
9:53 PM,64.9,63.0,93,30.01,8.0,West,4.6,-,N/A,,Clear,280,2013-08-30 01:53:00
10:53 PM,64.9,63.0,93,30.01,10.0,NW,4.6,-,N/A,,Clear,310,2013-08-30 02:53:00
11:53 PM,64.0,62.1,93,30.01,10.0,NW,5.8,-,N/A,,Clear,310,2013-08-30 03:53:00